Retour au catalogue

ONEWEB-0668

ActifCommunicationsPO
NORAD 56711·PAYLOAD·🇬🇧 United Kingdom

Lancé May 20, 2023 depuis Vandenberg Space Force Base

Loading…

Prochains Passages (prochaines 24 heures)

TLE

FraisSource: CelesTrak SupGP

Époque: Sep 14, 2026, 21:14 UTC

1 56711C 23068B   26257.88490001 -.00000180  00000+0 -47199-3 0  2571
2 56711  87.9147 210.9625 0001702  92.0419 303.8466 13.16594005    13

Suivez ONEWEB-0668 en temps réel avec AllMySat

Download on the App Store